Bagan Pulau Ketam, Malaysia

11:39 AM +08 on April 29, 2017 (GMT +0800)
Klang | | Change Station

Elev 20 ft 3.05 °N, 101.45 °E | Updated 8 seconds ago

Mostly Cloudy
Mostly Cloudy
88.7 °F
Feels Like 99 °F
N
2.7
Wind Variable Wind from ENE
Gusts 4.9 mph

Today
High -- | Low -- °F
--% Chance of Precip.
Yesterday
High -- | Low -- °F
Precip. -- in
Pressure 29.86 in
Visibility 6.2 miles
Clouds Few 1800 ft
Mostly Cloudy 28000 ft
Heat Index 99 °F
Dew Point 75 °F
Humidity 64%
Rainfall 0.00 in
Snow Depth Not available.
7:05 AM 7:18 PM
Waxing Crescent, 10% visible
METAR WMKK 290330Z 01005KT 290V070 9999 FEW018 BKN280 32/25 Q1011 NOSIG
Pressure 29.86 in
Visibility 6.2 miles
Clouds Few 1800 ft
Mostly Cloudy 28000 ft
Heat Index 99 °F
Dew Point 75 °F
Humidity 64%
Rainfall 0.00 in
Snow Depth Not available.
7:05 AM 7:18 PM
Waxing Crescent, 10% visible
METAR WMKK 290330Z 01005KT 290V070 9999 FEW018 BKN280 32/25 Q1011 NOSIG

Get Severe Weather Alerts

Thanks for signing up!

Be on the lookout for a verification email in your inbox.

You'll start receiving the daily forecast at 8 AM.

×

10-Day Weather Forecast

No radar image for this location.
×

Almanac

Astronomy

Apr. 29, 2017 Rise Set
Actual Time
Civil Twilight
Nautical Twilight
Astronomical Twilight
Moon
Length of Visible Light
Length of Day
Tomorrow will be .
, % of the Moon is Illuminated

Today's Extremes

Country Highs Country Lows

Community

WunderPhotos

WunderBlog® & News

Nearby

Air Quality

  Air Quality AQ Index Pollutant
Not available.

Snow Depth

Station Depth Elevation

Earthquake Activity

City Distance Mag. Time & Date
Minimum magnitude displayed is 2.5.

Coastal Water Temperatures

Place Temperature

Stations

Nearby Weather Stations

Station Location Temp. Windchill Dew Point Humidity Wind Precip. Elev Updated Type